Location: Le Petit-Vavre
(46.5081°N, 1.5239°E)
Time: 13:53:14
(UTC+00:00)

SL-08 R/B - Pass Details

Date: 03 March 2021
Orbit: 949 x 1019 km, 82.9° (Epoch: 14 April)

Event Time Altitude Azimuth Distance (km) Brightness Sun altitude
Exits shadow 20:11:54 30° 175° (S) 1,723 5.5 -26.1°
Maximum altitude 20:15:17 76° 95° (E) 1,050 4.4 -26.6°
Drops below altitude 10° 20:21:47 10° 11° (NNE) 2,818 7.0 -27.7°
Sets 20:24:20 0° 10° (N) 3,771 7.7 -28.1°
